Find OneWeb SL0395

NORAD ID: 50475 Int'l Des: 2021-132 Owner: ONEWEBN Country: UK Constellation: oneweb operational
LEOCIRCULARPOLARONEWEB_TYPE

現在のビュー

3D地球を読み込み中...

About OneWeb SL0395

OneWeb SL0395 (NORAD 50475) is a oneweb constellation satellite launched Dec 27, 2021 by ONEWEBN of UK. It operates in LEO, CIRCULAR, POLAR, ONEWEB_TYPE orbit with a mass of 148.00 kg.

OneWeb SL0395について

説明を読み込み中...

次回通過

Passes for default location (London). Set your location on the main map for personalized predictions.

高度履歴

Loading altitude history...

軌道要素

1 50475U 21132G 26171.29520181 -.00000056 00000-0 -19309-3 0 9993
2 50475 87.8889 20.4484 0002099 86.3514 273.7854 13.11413200216124
Epoch: Jun 20, 2026 • Age: 28 hours

現在のステータス

高度 1225.0 km
速度 7.25 km/s
衛星直下点 52.05°N, 119.82°E
打ち上げ日 Dec 27, 2021
運用期間 4.4 years
タイプ internet

技術仕様

分類 Payload
質量 148.00 kg
乾燥質量 140.00 kg
総質量 148.00 kg
長さ 1.30 m
直径 1.00 m
スパン 5.00 m
形状 Trapezoid+2 pan
製造者 ONEWUS
バスタイプ ARROW
フェーズステータス In Orbit
所有者/国 ONEWEBN/UK

Most Searched